Location: Wildlife_Club
(35.6000°N, 81.4330°W)
Time: 07:46:00
(UTC-04:00)

A-11 Canister half - Pass Details

Date: 26 June 2019
Orbit: 1514 x 1685 km, 47.2° (Epoch: 19 July)

Event Time Altitude Azimuth Distance (km) Brightness Sun altitude
Rises 18:08:18 0° 301° (WNW) 4,776 12.6 29.2°
Reaches altitude 10° 18:11:34 10° 296° (WNW) 3,765 12.5 28.5°
Maximum altitude 18:20:26 47° 227° (SW) 1,960 10.4 26.7°
Drops below altitude 10° 18:29:05 10° 157° (SSE) 3,667 10.7 25.0°
Sets 18:32:15 0° 151° (SSE) 4,642 11.2 24.4°
